Voltar ao catálogo

STARLINK-32160

AtivoComunicaçõesVLEO
NORAD 60261·PAYLOAD·🇺🇸 United States

Lançado Jul 27, 2024 de Cape Canaveral Space Force Station

Loading…

Próximas Passagens (próximas 24 horas)

TLE

AtualizadoSource: CelesTrak SupGP

Época: Sep 14, 2026, 20:48 UTC

1 60261C 24131G   26257.86715278  .00047569  00000+0  14050-2 0  2571
2 60261  53.1569 251.8905 0001499  81.9080  86.2570 15.34375590    16

Acompanhe STARLINK-32160 em tempo real com AllMySat

Download on the App Store